Estación de El Carmen

Ultimos registro cada 15 minutos 30
Estación Fecha / Hora Temperatura Humedad Lluvia Velocidad Dirección Radiación Presion
30 El Carmen 01-09-2026 07:15 8,6 91 0 0 119 3,1 979,4
29 El Carmen 01-09-2026 07:00 8,8 90,5 0 0 119 0,6 979,2
28 El Carmen 01-09-2026 06:45 9 90,6 0 0 121 0,6 979,3
27 El Carmen 01-09-2026 06:30 8,9 90,5 0 0,5 119 0,6 979,3
26 El Carmen 01-09-2026 06:15 8,9 90,5 0 0 108 0,6 979,3
25 El Carmen 01-09-2026 06:00 9,2 88,4 0 0 105 0,6 979,3
24 El Carmen 01-09-2026 05:45 9,7 87,6 0 0 107 0,6 979,2
23 El Carmen 01-09-2026 05:30 9,6 88,3 0 0,5 112 0,6 979,2
22 El Carmen 01-09-2026 05:15 9,6 88,1 0 0 115 0,6 979,3
21 El Carmen 01-09-2026 05:00 9,5 88,6 0 0 108 0,6 979,2
20 El Carmen 01-09-2026 04:45 9,5 88,3 0 0 105 0,6 979,1
19 El Carmen 01-09-2026 04:30 9,3 88,4 0 0 105 0,6 979,1
18 El Carmen 01-09-2026 04:15 9,7 86,5 0 0 105 0,6 978,9
17 El Carmen 01-09-2026 04:00 10,1 85,4 0 0 105 0,6 978,8
16 El Carmen 01-09-2026 03:45 10,1 86,3 0 0 107 0,6 979
15 El Carmen 01-09-2026 03:30 8,9 89,4 0 0 107 0,6 979,3
14 El Carmen 01-09-2026 03:15 9,3 88 0 0 107 0,6 979,4
13 El Carmen 01-09-2026 03:00 11,4 80,3 0 0 115 0,6 979,5
12 El Carmen 01-09-2026 02:45 10,7 84,4 0 0 117 0,6 979,8
11 El Carmen 01-09-2026 02:30 9,4 88,7 0 0 117 0,6 980,1
10 El Carmen 01-09-2026 02:15 10,2 85,3 0 0 117 0,6 980,1
9 El Carmen 01-09-2026 02:00 10,3 85,9 0 0 117 0,6 980
8 El Carmen 01-09-2026 01:45 9,4 87,8 0 0 117 0,6 980,4
7 El Carmen 01-09-2026 01:30 9,8 86,5 0 0 117 0,6 980,2
6 El Carmen 01-09-2026 01:15 9,9 85,8 0 0 117 0,6 980,3
5 El Carmen 01-09-2026 01:00 10,1 85,2 0 0 117 0,6 980,4
4 El Carmen 01-09-2026 00:45 10,2 84,1 0 0 115 0,6 980,4
3 El Carmen 01-09-2026 00:30 9,8 86,7 0 0 105 0,6 980,3
2 El Carmen 01-09-2026 00:15 9,8 86,3 0 0 105 0,6 980,8
1 El Carmen 01-09-2026 00:00 10,1 85,1 0 0 100 0,6 980,7